LDPE-3A

Last updated on Sun Jun 21 2026 00:03:09 GMT+0000 (Coordinated Universal Time)

1 55264U 23008B 26171.36780369 .00000074 00000+0 00000+0 0 9993 2 55264 2.3572 81.6285 0001203 57.3943 140.0346 0.99145584 11847
UTC large
Height (km)
Speed (km/s)
/
Latitude / Longitude
Inclination (degrees)
Orbital Period (minutes)
Azimuth
Elevation
Range (km)
Doppler Factor

Next 0 passes for location: London (51.5072 / 0.1276)

No passes found over London.
LDPE-3A